Location: Cheb
(50.0670°N, 12.3670°E)
Time: 09:45:51
(UTC+01:00)

ISS - Visible Passes

Search period start: 30 November 2023 00:00
Search period end: 10 December 2023 00:00
Orbit: 416 x 417 km, 51.6° (Epoch: 30 November)

Date Brightness Start Highest point End Pass type
(mag) Time Alt. Az. Time Alt. Az. Time Alt. Az.
30 Nov -3.8 17:29:08 10° WNW 17:32:31 80° NNE 17:34:46 19° E visible
30 Nov -1.3 19:06:02 10° W 19:07:41 23° WSW 19:07:41 23° WSW visible
01 Dec -2.9 18:17:33 10° WNW 18:20:48 47° SSW 18:21:30 39° SSE visible
02 Dec -3.4 17:29:04 10° WNW 17:32:24 66° SSW 17:35:26 12° ESE visible
02 Dec -1.0 19:06:31 10° W 19:08:22 16° SW 19:08:22 16° SW visible
03 Dec -1.6 18:17:37 10° W 18:20:23 24° SW 18:22:28 14° SSE visible
04 Dec -2.1 17:28:54 10° W 17:31:59 34° SSW 17:35:04 10° SE visible
05 Dec -0.5 18:18:31 10° WSW 18:19:37 11° SW 18:20:43 10° SSW visible
06 Dec -0.8 17:28:57 10° W 17:31:14 17° SW 17:33:30 10° S visible
